This demonstration page uses our WeatherBlox Daily Observations layout. Learn more.

Left ArrowRight Arrow

40.92945, -100.16068

Hourly Observations for October 7, 2022

Temp ( °F °C ) Dew Point ( °F °C ) Humidity (%) Winds ( mph kmh ) Pressure ( in mb ) Visibility ( mi km ) Precip ( " mm )
12:15 am 00:15 Clear 43 6.2 29 -1.6 57 57 NE 8 13 30.49 1032 10 16 0.00 0.00
12:35 am 00:35 Clear 43 6 29 -1.6 58 58 NE 9 15 30.49 1032 10 16 0.00 0.00
12:55 am 00:55 Partly Cloudy 42 5.7 29 -1.5 60 60 NNE 7 11 30.50 1033 10 16 0.00 0.00
1:15 am 01:15 Partly Cloudy 42 5.8 29 -1.6 59 59 NNE 7 11 30.51 1033 10 16 0.00 0.00
1:35 am 01:35 Clear 43 6 29 -1.7 58 58 NE 9 15 30.51 1033 10 16 0.00 0.00
1:55 am 01:55 Mostly Cloudy 44 6.7 28 -2 54 54 NNE 12 19 30.51 1033 10 16 0.00 0.00
2:15 am 02:15 Cloudy 44 6.8 29 -1.5 55 55 NE 13 20 30.51 1033 10 16 0.00 0.00
2:35 am 02:35 Cloudy 42 5.7 32 0 67 67 NE 16 26 30.53 1034 10 16 0.00 0.00
2:55 am 02:55 Cloudy 41 5.1 33 0.6 73 73 N 13 20 30.57 1035 10 16 0.00 0.00
3:15 am 03:15 Cloudy 41 4.8 35 1.6 80 80 N 7 11 30.57 1035 10 16 0.00 0.00
3:35 am 03:35 Cloudy 40 4.7 36 2 83 83 N 10 17 30.58 1036 10 16 0.00 0.00
3:55 am 03:55 Cloudy with Light Rain 40 4.5 36 2.3 86 86 N 10 17 30.58 1036 10 16 0.00 0.00
4:15 am 04:15 Cloudy with Light Rain 39 4 37 2.7 91 91 N 9 15 30.60 1036 3 5 0.04 1.02
4:35 am 04:35 Cloudy with Light Rain 39 3.7 37 2.5 92 92 NNE 5 7 30.59 1036 10 16 0.05 1.27
4:55 am 04:55 Cloudy with Rain 39 4 37 2.5 90 90 NE 3 6 30.58 1036 10 16 0.06 1.52
5:15 am 05:15 Cloudy with Light Rain 39 4 37 2.7 91 91 Calm 30.59 1036 7 11 0.01 0.25
5:35 am 05:35 Cloudy with Light Rain 39 4.1 38 3.2 94 94 N 6 9 30.59 1036 10 16 0.03 0.76
5:55 am 05:55 Cloudy with Light Rain 40 4.2 38 3.2 93 93 N 8 13 30.60 1036 10 16 0.05 1.27
6:15 am 06:15 Cloudy with Light Rain 39 4 37 2.9 93 93 NE 8 13 30.57 1035 10 16 0.01 0.25
6:35 am 06:35 Cloudy with Light Rain 39 3.9 37 2.6 91 91 N 7 11 30.60 1036 10 16 0.02 0.51
6:55 am 06:55 Cloudy with Rain 38 3.6 37 2.6 93 93 N 7 11 30.61 1037 7 11 0.04 1.02
7:15 am 07:15 Cloudy with Light Rain 38 3.5 37 2.6 94 94 N 5 7 30.60 1036 3 5 0.04 1.02
7:35 am 07:35 Cloudy with Light Rain 38 3.6 37 2.8 94 94 NNW 5 7 30.61 1037 10 16 0.07 1.78
7:55 am 07:55 Cloudy 39 3.7 37 3 95 95 NW 7 11 30.62 1037 10 16 0.07 1.78
8:15 am 08:15 Cloudy with Light Rain 39 4 37 2.8 92 92 NNW 6 9 30.63 1037 10 16 0.00 0.00
8:35 am 08:35 Cloudy with Rain 39 4 37 3 93 93 N 5 7 30.62 1037 7 11 0.01 0.25
8:55 am 08:55 Cloudy with Light Rain 39 4 37 3 93 93 N 6 9 30.63 1037 10 16 0.02 0.51
9:15 am 09:15 Cloudy with Rain 39 4 37 3 93 93 NW 7 11 30.64 1038 7 11 0.01 0.25
9:35 am 09:35 Cloudy with Rain 39 4 37 3 93 93 NW 9 15 30.64 1038 7 11 0.02 0.51
9:55 am 09:55 Cloudy with Drizzle 39 4 37 2.6 91 91 NNW 7 11 30.64 1038 10 16 0.02 0.51
10:15 am 10:15 Cloudy 39 4.1 37 2.5 89 89 NW 8 13 30.65 1038 10 16 0.00 0.00
10:35 am 10:35 Cloudy 40 4.5 37 2.8 89 89 NW 9 15 30.63 1037 10 16 0.00 0.00
10:55 am 10:55 Cloudy 41 4.9 37 2.9 87 87 N 7 11 30.63 1037 10 16 0.00 0.00
11:15 am 11:15 Cloudy 41 4.9 37 2.6 85 85 N 6 9 30.63 1037 10 16 0.00 0.00
11:35 am 11:35 Cloudy 41 5 37 2.8 86 86 NW 7 11 30.63 1037 10 16 0.00 0.00
11:55 am 11:55 Cloudy 41 5.2 35 1.7 78 78 N 3 6 30.63 1037 10 16 0.00 0.00
12:15 pm 12:15 Cloudy 42 5.6 36 2.3 79 79 N 3 6 30.62 1037 10 16 0.00 0.00
12:35 pm 12:35 Cloudy 42 5.8 35 1.4 73 73 Calm 30.62 1037 10 16 0.00 0.00
12:55 pm 12:55 Cloudy 43 6.1 35 1.8 74 74 NNE 3 6 30.61 1037 10 16 0.00 0.00
1:15 pm 13:15 Cloudy 44 6.6 35 1.6 70 70 NNW 3 6 30.60 1036 10 16 0.00 0.00
1:35 pm 13:35 Cloudy 44 6.8 33 0.7 65 65 NNW 7 11 30.60 1036 10 16 0.00 0.00
1:55 pm 13:55 Cloudy 44 6.8 34 1.2 67 67 NW 3 6 30.59 1036 10 16 0.00 0.00
2:15 pm 14:15 Cloudy 45 7.2 34 1.1 65 65 N 5 7 30.58 1035 10 16 0.00 0.00
2:35 pm 14:35 Cloudy 45 7.1 33 0.7 64 64 NNE 3 6 30.57 1035 10 16 0.00 0.00
2:55 pm 14:55 Cloudy 45 7 33 0.5 63 63 NNW 6 9 30.56 1035 10 16 0.00 0.00
3:15 pm 15:15 Cloudy 45 7.3 34 1.1 65 65 N 3 6 30.55 1034 10 16 0.00 0.00
3:35 pm 15:35 Cloudy 45 7.4 33 0.7 62 62 WNW 6 9 30.55 1034 10 16 0.00 0.00
3:55 pm 15:55 Cloudy 45 7.3 33 0.4 61 61 NNW 3 6 30.54 1034 10 16 0.00 0.00
4:15 pm 16:15 Cloudy 46 7.5 32 -0.2 58 58 N 6 9 30.54 1034 10 16 0.00 0.00
4:35 pm 16:35 Cloudy 46 7.6 33 0.3 60 60 NW 6 9 30.53 1034 10 16 0.00 0.00
4:55 pm 16:55 Cloudy 46 7.5 32 -0.1 58 58 N 5 7 30.52 1034 10 16 0.00 0.00
5:15 pm 17:15 Cloudy 46 7.5 32 0 59 59 WNW 5 7 30.52 1034 10 16 0.00 0.00
5:35 pm 17:35 Cloudy 46 7.6 32 0 59 59 Calm 30.51 1033 10 16 0.00 0.00
5:55 pm 17:55 Cloudy 46 7.7 32 0.1 59 59 WNW 3 6 30.51 1033 10 16 0.00 0.00
6:15 pm 18:15 Cloudy 46 7.7 32 0.1 59 59 WNW 5 7 30.50 1033 10 16 0.00 0.00
6:35 pm 18:35 Cloudy 46 7.6 32 0.1 59 59 W 3 6 30.51 1033 10 16 0.00 0.00
6:55 pm 18:55 Cloudy 46 7.6 33 0.7 62 62 W 3 6 30.51 1033 10 16 0.00 0.00
7:15 pm 19:15 Cloudy 46 7.5 34 1 63 63 W 3 6 30.51 1033 10 16 0.00 0.00
7:35 pm 19:35 Cloudy 46 7.5 35 1.4 65 65 W 3 6 30.51 1033 10 16 0.00 0.00
7:55 pm 19:55 Cloudy 45 7.3 35 1.5 67 67 W 3 6 30.51 1033 10 16 0.00 0.00
8:15 pm 20:15 Cloudy 45 7.1 35 1.6 68 68 W 3 6 30.51 1033 10 16 0.00 0.00
8:35 pm 20:35 Cloudy 45 7.2 35 1.6 68 68 Calm 30.51 1033 10 16 0.00 0.00
8:55 pm 20:55 Cloudy 45 7.3 36 2.1 69 69 W 3 6 30.52 1033 10 16 0.00 0.00
9:15 pm 21:15 Cloudy 45 7.2 37 2.5 72 72 W 3 6 30.52 1033 10 16 0.00 0.00
9:35 pm 21:35 Cloudy 45 7.2 37 2.6 73 73 Calm 30.52 1033 10 16 0.00 0.00
9:55 pm 21:55 Cloudy 45 7 37 2.6 74 74 SW 3 6 30.53 1034 10 16 0.00 0.00
10:15 pm 22:15 Cloudy 44 6.6 37 2.9 77 77 WSW 3 6 30.53 1034 10 16 0.00 0.00
10:35 pm 22:35 Cloudy 44 6.5 37 2.9 78 78 Calm 30.53 1034 10 16 0.00 0.00
10:55 pm 22:55 Cloudy 43 6.2 38 3.6 83 83 W 3 6 30.54 1034 10 16 0.00 0.00
11:15 pm 23:15 Cloudy 44 6.6 38 3.4 80 80 Calm 30.53 1034 10 16 0.00 0.00
11:35 pm 23:35 Cloudy 44 6.7 38 3.5 80 80 WSW 3 6 30.53 1034 10 16 0.00 0.00
11:55 pm 23:55 Cloudy 45 7 38 3.1 76 76 WSW 3 6 30.53 1034 10 16 0.00 0.00

Powered by AerisWeather